sat.trackr.live / text

‹ back to catalog

STARLINK-2114

NORAD 47393 · 2021-005AW

PAYLOAD ACTIVE UNKNOWN

§ Identity

Operator
Country
US
Launch date
2021-01-20
Launch site
AFETR
Launch vehicle
Mass (kg)
RCS (m²)

Purposes: comms

External: N2YO · Heavens-Above · Gunter

§ Orbital elements

Epoch: 2026-06-15T00:32:35.952576Z

Period
87.49 min
Inclination
53.0120°
Eccentricity
0.0004173
Mean motion
16.45882232 rev/d
Perigee alt
147.5 km
Apogee alt
152.9 km
Semi-major
6,528.3 km
B*
3.2676e-4
RAAN
213.3904°
Arg perigee
278.4944°
Mean anomaly
81.5632°
Rev number
29,954

§ Raw data

STARLINK-21141 47393U 21005AW  26166.02263834  .13117879  12537-4  32676-3 0  99992 47393  53.0120 213.3904 0004173 278.4944  81.5632 16.45882232299549

JSON: /api/v1/satellites/47393 · /tle

For live sub-satellite position, see the globe view (requires WebGL).

§ Visibility from observer

Set your observer location to see the next 7 days of passes ≥ 10°. The values pass through the URL so the page stays shareable.

No JS? Fill the form by hand. The geolocation button needs JavaScript.